Location: ??
(35.5653°N, 139.6194°E)
Time: 09:34:57
(UTC+00:00)

Daily predictions for brighter satellites

Satellite Brightness Start Highest point End
(mag) Time Altitude Azimuth Time Altitude Azimuth Time Altitude Azimuth
CZ-3B R/B 4.4 17:32:01 19° SE 17:32:01 19° SE 17:34:02 10° ESE
H-2A ROCKET BODY 4.3 18:25:31 54° SW 18:28:25 63° S 19:30:48 10° ESE
Centaur D AC-28 3.3 18:35:15 44° SSE 18:35:15 44° SSE 18:46:03 10° ESE
COSMOS 2455 4.0 18:40:26 33° NNE 18:42:04 39° ENE 18:47:39 10° SE
OAO 3 Rocket 4.2 18:52:37 44° ESE 18:52:37 44° ESE 18:55:55 10° ESE
CZ-2C R/B 4.1 18:57:42 10° NNE 18:59:22 22° NNE 18:59:22 22° NNE
Cosmos 2150 Rocket 4.4 19:00:26 10° S 19:05:49 64° ESE 19:11:12 10° NNE
OAO 2 Rocket 3.7 19:06:26 58° SSE 19:06:26 58° SSE 19:10:57 10° ESE
ASTEX 1 3.4 19:04:47 10° S 19:09:44 83° E 19:10:09 74° NNE
Cosmos 372 Rocket 4.2 19:04:54 10° S 19:10:00 67° ESE 19:15:06 10° NNE
Cosmos 1825 4.1 19:09:41 10° SSE 19:12:59 30° E 19:16:19 10° NNE
Cosmos 1459 Rocket 3.8 19:16:32 10° S 19:22:43 84° W 19:29:02 10° N
ATLAS 2AS CENTAUR R/B 3.1 19:18:20 19° NNW 19:23:50 64° NE 19:30:38 10° SE
ATLAS CENTAUR R/B 2.7 19:26:47 33° N 19:26:47 33° N 19:29:46 10° NNE
Cosmos 2360 Rocket 3.8 19:22:28 10° N 19:27:33 33° ENE 19:32:35 10° SE
CZ-3B R/B 3.0 19:26:10 24° SW 19:29:38 36° S 19:34:05 10° ESE
Cosmos 1980 Rocket 4.0 19:36:23 15° SW 19:36:23 15° SW 19:37:40 10° SSW
SL-16 R/B 2.1 19:30:39 26° NNW 19:33:59 89° W 19:39:39 10° SSE
Cosmos 1484 Rocket 3.3 19:30:30 10° NNE 19:34:29 61° E 19:38:25 10° S
Yuri Rocket 4.4 19:33:05 29° SW 19:35:16 40° S 19:39:54 10° ESE
Meteor 2-20 Rocket 4.3 19:29:49 10° NNW 19:35:56 66° W 19:42:00 10° S
Shenzhou-11 Module 3.4 19:37:25 34° ESE 19:37:25 34° ESE 19:39:07 10° ESE
Cosmos 2016 Rocket 4.0 19:30:18 10° S 19:36:32 85° E 19:42:54 10° N
Cosmos 1725 Rocket 4.3 19:30:41 10° S 19:36:51 67° E 19:43:07 10° NNE
Cosmos 1408 4.0 19:34:19 10° S 19:40:33 19° N 19:41:40 10° N
Cosmos 2322 Rocket 2.1 19:36:15 19° NNW 19:40:24 88° ENE 19:46:06 10° SSE
SL-4 R/B 3.3 19:38:46 27° NNW 19:40:54 43° NE 19:45:28 10° ESE
Cosmos 1151 Rocket 3.3 19:36:45 10° N 19:41:07 67° E 19:45:23 10° SSE
Cosmos 2298 Rocket 4.2 19:45:16 22° SW 19:48:18 45° WNW 19:53:23 10° N
COBE Rocket 3.9 19:43:46 10° S 19:48:55 76° W 19:53:58 10° NNW
Cosmos 1328 Rocket 3.4 19:49:51 10° N 19:54:09 77° W 19:58:26 10° S
Okean O Rocket 2.7 19:50:25 10° NNE 19:54:36 45° E 19:58:46 10° S
Meteor PRIRODA 3.7 19:51:12 10° N 19:54:44 49° WNW 19:58:14 10° SSW
SKYMED 2 3.8 19:51:58 10° SSE 19:56:16 71° ENE 20:00:36 10° N
Cosmos 972 Rocket 4.3 19:52:34 10° S 19:57:31 68° ESE 20:02:57 10° NNE
FENGYUN 3A 4.1 19:54:03 10° NNE 19:59:26 66° ESE 20:04:47 10° S
Cosmos 1743 Rocket 3.6 19:55:17 10° S 19:59:35 80° E 20:03:55 10° N
Cosmos 1515 Rocket 3.7 19:55:31 10° N 19:59:50 72° E 20:04:10 10° SSE
Cosmos 2100 Rocket 4.4 19:55:33 10° SW 20:01:11 36° WNW 20:06:47 10° NNW
Meteor 2-3 Rocket 4.1 19:57:18 10° S 20:02:59 69° E 20:08:46 10° NNE
SL-08 R/B 4.4 19:58:38 10° SSW 20:04:42 67° W 20:10:45 10° N
Cosmos 1437 2.6 20:03:16 10° SSW 20:06:13 50° W 20:09:13 10° N
Helios 1A Rocket 3.3 20:03:11 10° NNE 20:07:15 66° ESE 20:11:15 10° S
ALOS 2.2 20:04:34 10° NNE 20:09:15 88° E 20:13:55 10° SSW
Tsikada Rocket 4.1 20:03:52 10° N 20:10:16 84° E 20:16:33 10° S
Cosmos 1238 Rocket 4.0 20:06:55 10° S 20:13:33 87° E 20:19:33 10° N
Cosmos 1408 Rocket 4.2 20:10:23 10° SW 20:14:13 31° WNW 20:18:05 10° NNW
Cosmos 2219 Rocket 4.1 20:11:45 10° N 20:16:33 27° ENE 20:21:19 10° ESE
CZ-4B R/B 3.3 20:12:31 10° NNE 20:17:59 80° ESE 20:23:32 10° S
Delta 2 Rocket 3.5 20:16:10 21° W 20:19:08 88° N 20:24:08 10° E
Cosmos 1500 Rocket 3.6 20:17:43 10° SSW 20:22:07 61° W 20:26:31 10° N
Cosmos 2333 Rocket 3.8 20:18:42 10° N 20:23:54 33° ENE 20:29:02 10° SE
COSMOS 2455 3.7 20:23:39 14° NW 20:27:47 29° WSW 20:32:49 10° SSW
BREEZE-M DEB (TANK) 4.5 20:09:53 10° SW 20:27:57 82° SE 20:32:24 10° NE
Sich 1 4.5 20:24:15 10° SSE 20:28:14 40° E 20:32:14 10° NNE
OAO 3 Rocket 4.1 20:30:26 13° W 20:34:22 37° SSW 20:38:46 10° SE
NOSS 3-4 (A) 4.0 20:27:43 10° NW 20:34:53 62° WSW 20:42:38 10° SSE
NOSS 3-4 (C) 4.0 20:27:50 10° NW 20:34:59 63° WSW 20:42:44 10° SSE
Cosmos 1125 Rocket 4.2 20:36:07 10° SW 20:40:46 31° WNW 20:45:27 10° N
Cosmos 2233 Rocket 4.1 20:36:19 10° SSW 20:42:26 57° W 20:48:39 10° N
Timation 2 Rocket 3.8 20:37:10 10° SSW 20:43:13 68° WNW 20:49:11 10° NNE
COSMO-SKYMED 1 3.4 20:40:31 10° SSW 20:44:19 30° W 20:48:09 10° NW
Cosmos 1606 3.2 20:43:02 10° NNW 20:46:34 38° W 20:50:08 10° SSW
STARLINK 1022 4.1 20:44:50 10° SSW 20:47:23 39° SE 20:49:57 10° ENE
OAO 3 Copernicus 4.3 20:42:50 10° W 20:47:52 85° S 20:52:55 10° E
STARLINK 1050 4.0 20:45:38 10° SSW 20:48:14 40° SE 20:50:50 10° ENE
Cosmos 1825 3.9 20:46:43 10° WSW 20:48:34 13° WNW 20:50:25 10° NW
STARLINK 1055 3.9 20:46:47 10° SSW 20:49:23 42° SE 20:52:00 10° ENE
STARLINK 1042 3.8 20:48:21 10° SSW 20:50:59 44° SE 20:53:38 10° ENE
USA 116 4.1 20:49:02 10° SSW 20:51:58 32° W 20:55:09 10° NNW
STARLINK 1056 3.7 20:49:21 10° SSW 20:51:59 46° SE 20:54:39 10° ENE
Radarsat Rocket 4.0 20:46:12 10° NNE 20:52:02 81° WNW 20:58:13 10° SSW
STARLINK 1054 3.7 20:50:23 10° SSW 20:53:02 47° SE 20:55:42 10° ENE
STARLINK-67 3.3 20:51:17 10° WNW 20:53:44 34° SW 20:56:08 10° SSE
STARLINK 1062 3.6 20:51:05 10° SSW 20:53:44 49° SE 20:56:25 10° ENE
Cosmos 1933 4.4 20:51:27 10° NNW 20:54:47 25° W 20:58:06 10° SSW
Meteor 1-26 Rocket 4.4 20:51:27 10° NNW 20:56:54 53° W 21:02:13 10° S
